{"data":{"norad_id":67062,"intl_designator":"2025-295D","name":"HULIANWANG DIGUI-122","alt_names":[],"object_type":"PAYLOAD","status":"ACTIVE","operator":null,"country":"PRC","launch_date":"2025-12-11","launch_site_code":"WSC","launch_vehicle":null,"mission":null,"orbit_class":"UNKNOWN","rcs_meters":null,"size_class":null,"mass_kg":null,"dimensions":null,"purposes":[],"wikipedia_slug":null,"has_3d_model":false,"image_url":null,"decayed_at":null,"tle_current":{"epoch":"2026-05-25T03:02:16.131840Z","epoch_age_seconds":74672,"freshness":"FRESH","line1":"1 67062U 25295D   26145.12657560 -.00000084  00000+0  86601-4 0  9991","line2":"2 67062  50.0024 108.2691 0000828 353.1554   6.9307 13.29328769 22431","mean_motion":13.29328769,"eccentricity":8.28e-5,"inclination_deg":50.0024,"raan_deg":108.2691,"arg_perigee_deg":353.1554,"mean_anomaly_deg":6.9307,"bstar":8.6601e-5,"rev_number":2243,"period_min":108.32534686534,"perigee_km":1148.6728472471,"apogee_km":1149.9193901716,"semimajor_km":7527.4331187093,"source":"CELESTRAK","updated_at":"2026-05-25T13:38:06.701519Z"}}}